Location: Caltech
(34.1382°N, 118.1253°W)
Time: 20:32:20
(UTC-07:00)

Cosmos 2084 - Visible Passes

Search period start: 31 July 2015 00:00
Search period end: 10 August 2015 00:00
Orbit: 536 x 656 km, 62.8° (Epoch: 31 July)

Date Brightness Start Highest point End Pass type
(mag) Time Alt. Az. Time Alt. Az. Time Alt. Az.
31 Jul 5.4 04:36:52 10° SSE 04:39:55 22° ESE 04:43:06 10° ENE visible
01 Aug 4.2 04:46:30 14° S 04:49:37 44° ESE 04:53:31 10° NE visible
02 Aug 3.2 04:56:33 19° SSW 04:59:22 86° WNW 05:03:28 10° NNE visible
03 Aug 5.8 03:29:53 13° ESE 03:29:59 13° ESE 03:32:02 10° E visible
03 Aug 3.9 05:06:33 18° WSW 05:09:14 41° NW 05:13:07 10° NNE visible
04 Aug 4.9 03:39:48 27° ESE 03:39:48 27° ESE 03:43:06 10° ENE visible
04 Aug 4.9 05:16:28 12° W 05:19:14 22° NW 05:22:27 10° N visible
05 Aug 3.8 03:49:40 54° E 03:49:40 54° E 03:53:20 10° NE visible
05 Aug 5.5 05:27:24 10° WNW 05:29:21 13° NW 05:31:10 10° NNW visible
06 Aug 3.4 03:59:28 65° NNW 03:59:28 65° NNW 04:03:12 10° NNE visible
07 Aug 4.3 04:09:12 34° NW 04:09:12 34° NW 04:12:46 10° NNE visible
08 Aug 6.2 02:42:15 14° ENE 02:42:15 14° ENE 02:43:01 10° NE visible
08 Aug 5.1 04:18:53 19° NW 04:19:03 19° NW 04:21:58 10° N visible
09 Aug 5.9 02:51:53 19° NE 02:51:53 19° NE 02:53:07 10° NE visible
09 Aug 5.7 04:28:32 11° NW 04:29:12 11° NW 04:30:10 10° NNW visible
